| time (UTC) | temp C | wind direction | speed KPH | gust KPH | rain 1hr cm | rain 24hr cm | rain mn cm | humidity % | barometer mb |
| 20260503005752 | 14 | 255 | 6.4 | 6.4 | 0.00 | 0.00 | 0.00 | 32 | 1016.4 |
| 20260503005249 | 14 | 251 | 4.8 | 6.4 | 0.00 | 0.00 | 0.00 | 32 | 1016.4 |
| 20260503004745 | 14 | 238 | 6.4 | 6.4 | 0.00 | 0.00 | 0.00 | 33 | 1016.4 |
| 20260503004243 | 15 | 282 | 8.0 | 12.9 | 0.00 | 0.00 | 0.00 | 32 | 1016.6 |
| 20260503003740 | 15 | 236 | 9.7 | 11.3 | 0.00 | 0.00 | 0.00 | 32 | 1016.5 |
| 20260503003237 | 15 | 129 | 6.4 | 6.4 | 0.00 | 0.00 | 0.00 | 31 | 1016.6 |
| 20260503002734 | 15 | 278 | 6.4 | 11.3 | 0.00 | 0.00 | 0.00 | 31 | 1016.7 |
| 20260503002231 | 15 | 234 | 9.7 | 14.5 | 0.00 | 0.00 | 0.00 | 30 | 1016.8 |
| 20260503001727 | 15 | 243 | 8.0 | 9.7 | 0.00 | 0.00 | 0.00 | 30 | 1016.8 |
| 20260503001223 | 15 | 264 | 11.3 | 16.1 | 0.00 | 0.00 | 0.00 | 30 | 1016.6 |
| 20260503000721 | 15 | 252 | 6.4 | 9.7 | 0.00 | 0.00 | 0.00 | 29 | 1016.6 |
| 20260503000218 | 15 | 275 | 6.4 | 9.7 | 0.00 | 0.00 | 0.00 | 28 | 1016.7 |
| 20260502235715 | 16 | 359 | 3.2 | 6.4 | 0.00 | 0.00 | 0.00 | 28 | 1016.7 |
| 20260502235213 | 15 | 220 | 9.7 | 12.9 | 0.00 | 0.00 | 0.00 | 27 | 1016.5 |
| 20260502234709 | 15 | 258 | 11.3 | 14.5 | 0.00 | 0.00 | 0.00 | 27 | 1017.0 |
| 20260502234206 | 16 | 326 | 9.7 | 12.9 | 0.00 | 0.00 | 0.00 | 27 | 1016.9 |
| 20260502233702 | 16 | 261 | 4.8 | 9.7 | 0.00 | 0.00 | 0.00 | 27 | 1016.9 |
| 20260502233159 | 16 | 40 | 3.2 | 6.4 | 0.00 | 0.00 | 0.00 | 27 | 1017.1 |
| 20260502232655 | 16 | 289 | 6.4 | 6.4 | 0.00 | 0.00 | 0.00 | 27 | 1017.0 |
| 20260502232153 | 16 | 196 | 6.4 | 9.7 | 0.00 | 0.00 | 0.00 | 27 | 1017.2 |
| 20260502231649 | 16 | 268 | 8.0 | 11.3 | 0.00 | 0.00 | 0.00 | 27 | 1017.1 |
| 20260502231147 | 16 | 256 | 14.5 | 20.9 | 0.00 | 0.00 | 0.00 | 26 | 1017.0 |
| 20260502230645 | 16 | 245 | 8.0 | 11.3 | 0.00 | 0.00 | 0.00 | 27 | 1017.3 |
| 20260502230143 | 16 | 222 | 6.4 | 9.7 | 0.00 | 0.00 | 0.00 | 27 | 1017.3 |
| 20260502225638 | 16 | 268 | 3.2 | 4.8 | 0.00 | 0.00 | 0.00 | 27 | 1017.3 |
| 20260502225136 | 16 | 299 | 12.9 | 16.1 | 0.00 | 0.00 | 0.00 | 27 | 1017.4 |
| 20260502224632 | 16 | 296 | 4.8 | 4.8 | 0.00 | 0.00 | 0.00 | 27 | 1017.5 |
| 20260502224129 | 16 | 228 | 12.9 | 17.7 | 0.00 | 0.00 | 0.00 | 27 | 1017.5 |
| 20260502223627 | 16 | 244 | 12.9 | 16.1 | 0.00 | 0.00 | 0.00 | 27 | 1017.4 |
| 20260502223125 | 16 | 13 | 9.7 | 12.9 | 0.00 | 0.00 | 0.00 | 27 | 1017.4 |
| 20260502222622 | 16 | 256 | 4.8 | 4.8 | 0.00 | 0.00 | 0.00 | 27 | 1017.6 |
| 20260502222118 | 16 | 316 | 8.0 | 11.3 | 0.00 | 0.00 | 0.00 | 26 | 1017.7 |
| 20260502221614 | 16 | 254 | 8.0 | 11.3 | 0.00 | 0.00 | 0.00 | 26 | 1017.6 |
| 20260502221111 | 16 | 195 | 6.4 | 9.7 | 0.00 | 0.00 | 0.00 | 26 | 1017.7 |
| 20260502220608 | 16 | 333 | 9.7 | 14.5 | 0.00 | 0.00 | 0.00 | 27 | 1017.6 |
| 20260502220104 | 15 | 285 | 12.9 | 16.1 | 0.00 | 0.00 | 0.00 | 26 | 1017.8 |
| 20260502215601 | 16 | 275 | 14.5 | 16.1 | 0.00 | 0.00 | 0.00 | 27 | 1017.8 |
| 20260502215058 | 16 | 229 | 8.0 | 14.5 | 0.00 | 0.00 | 0.00 | 27 | 1017.7 |
| 20260502214555 | 16 | 269 | 6.4 | 9.7 | 0.00 | 0.00 | 0.00 | 26 | 1018.0 |
| 20260502214052 | 16 | 310 | 4.8 | 9.7 | 0.00 | 0.00 | 0.00 | 27 | 1017.9 |
| 20260502213549 | 16 | 267 | 8.0 | 12.9 | 0.00 | 0.00 | 0.00 | 26 | 1017.8 |
| 20260502213047 | 16 | 264 | 9.7 | 14.5 | 0.00 | 0.00 | 0.00 | 27 | 1018.0 |
| 20260502212546 | 16 | 298 | 14.5 | 17.7 | 0.00 | 0.00 | 0.00 | 27 | 1018.0 |
| 20260502212043 | 16 | 232 | 6.4 | 11.3 | 0.00 | 0.00 | 0.00 | 27 | 1017.9 |
| 20260502211538 | 16 | 276 | 4.8 | 6.4 | 0.00 | 0.00 | 0.00 | 26 | 1018.0 |
| 20260502211036 | 15 | 280 | 11.3 | 12.9 | 0.00 | 0.00 | 0.00 | 26 | 1018.2 |
| 20260502210532 | 16 | 267 | 6.4 | 14.5 | 0.00 | 0.00 | 0.00 | 27 | 1018.3 |
| 20260502210030 | 15 | 285 | 4.8 | 6.4 | 0.00 | 0.00 | 0.00 | 28 | 1018.2 |
| 20260502205526 | 15 | 244 | 11.3 | 12.9 | 0.00 | 0.00 | 0.00 | 27 | 1018.5 |
| 20260502205023 | 15 | 249 | 6.4 | 9.7 | 0.00 | 0.00 | 0.00 | 27 | 1018.4 |
| 20260502204520 | 15 | 292 | 9.7 | 12.9 | 0.00 | 0.00 | 0.00 | 26 | 1018.5 |
| 20260502204018 | 15 | 234 | 3.2 | 4.8 | 0.00 | 0.00 | 0.00 | 27 | 1018.5 |
| 20260502203515 | 16 | 272 | 14.5 | 16.1 | 0.00 | 0.00 | 0.00 | 27 | 1018.7 |
| 20260502203012 | 15 | 286 | 4.8 | 6.4 | 0.00 | 0.00 | 0.00 | 26 | 1018.7 |
| 20260502202508 | 15 | 245 | 6.4 | 9.7 | 0.00 | 0.00 | 0.00 | 27 | 1018.7 |
| 20260502202006 | 16 | 307 | 6.4 | 6.4 | 0.00 | 0.00 | 0.00 | 26 | 1018.9 |
| 20260502201502 | 15 | 280 | 8.0 | 11.3 | 0.00 | 0.00 | 0.00 | 27 | 1018.9 |
| 20260502200958 | 15 | 253 | 12.9 | 16.1 | 0.00 | 0.00 | 0.00 | 26 | 1019.1 |
| 20260502200455 | 15 | 285 | 6.4 | 11.3 | 0.00 | 0.00 | 0.00 | 28 | 1019.0 |
| 20260502195952 | 15 | 270 | 8.0 | 9.7 | 0.00 | 0.00 | 0.00 | 27 | 1019.0 |
| 20260502195450 | 15 | 290 | 9.7 | 12.9 | 0.00 | 0.00 | 0.00 | 27 | 1019.4 |
| 20260502194945 | 14 | 267 | 6.4 | 11.3 | 0.00 | 0.00 | 0.00 | 28 | 1019.3 |
| 20260502194443 | 15 | 279 | 11.3 | 14.5 | 0.00 | 0.00 | 0.00 | 27 | 1019.4 |
| 20260502193938 | 15 | 315 | 12.9 | 14.5 | 0.00 | 0.00 | 0.00 | 27 | 1019.4 |
| 20260502193436 | 15 | 277 | 6.4 | 9.7 | 0.00 | 0.00 | 0.00 | 28 | 1019.5 |
| 20260502192931 | 14 | 281 | 11.3 | 16.1 | 0.00 | 0.00 | 0.00 | 29 | 1019.5 |
| 20260502192428 | 15 | 265 | 0.0 | 1.6 | 0.00 | 0.00 | 0.00 | 28 | 1019.5 |
| 20260502191925 | 15 | 265 | 9.7 | 11.3 | 0.00 | 0.00 | 0.00 | 28 | 1019.7 |
| 20260502191423 | 15 | 264 | 17.7 | 22.5 | 0.00 | 0.00 | 0.00 | 28 | 1019.6 |
| 20260502190920 | 15 | 326 | 3.2 | 4.8 | 0.00 | 0.00 | 0.00 | 29 | 1019.7 |
| 20260502190417 | 15 | 298 | 6.4 | 9.7 | 0.00 | 0.00 | 0.00 | 28 | 1020.0 |
| 20260502185913 | 14 | 244 | 3.2 | 3.2 | 0.00 | 0.00 | 0.00 | 29 | 1019.9 |
| 20260502185409 | 14 | 241 | 6.4 | 9.7 | 0.00 | 0.00 | 0.00 | 28 | 1020.2 |
| 20260502184907 | 14 | 248 | 16.1 | 20.9 | 0.00 | 0.00 | 0.00 | 29 | 1020.1 |
| 20260502184402 | 13 | 298 | 9.7 | 11.3 | 0.00 | 0.00 | 0.00 | 30 | 1020.1 |
| 20260502183859 | 14 | 318 | 1.6 | 3.2 | 0.00 | 0.00 | 0.00 | 30 | 1020.2 |
| 20260502183354 | 13 | 223 | 4.8 | 6.4 | 0.00 | 0.00 | 0.00 | 29 | 1020.4 |
| 20260502182850 | 14 | 275 | 8.0 | 9.7 | 0.00 | 0.00 | 0.00 | 28 | 1020.3 |
| 20260502182346 | 13 | 306 | 11.3 | 12.9 | 0.00 | 0.00 | 0.00 | 29 | 1020.4 |
| 20260502181842 | 13 | 286 | 8.0 | 12.9 | 0.00 | 0.00 | 0.00 | 30 | 1020.4 |
| 20260502181341 | 14 | 282 | 9.7 | 9.7 | 0.00 | 0.00 | 0.00 | 29 | 1020.7 |
| 20260502180839 | 14 | 250 | 4.8 | 6.4 | 0.00 | 0.00 | 0.00 | 29 | 1020.5 |
| 20260502180336 | 13 | 305 | 9.7 | 11.3 | 0.00 | 0.00 | 0.00 | 30 | 1020.6 |
| 20260502170254 | 12 | 267 | 11.3 | 17.7 | 0.00 | 0.00 | 0.00 | 32 | 1021.1 |
| 20260502164242 | 12 | 3 | 6.4 | 6.4 | 0.00 | 0.00 | 0.00 | 34 | 1021.3 |
| 20260502163737 | 12 | 277 | 6.4 | 9.7 | 0.00 | 0.00 | 0.00 | 33 | 1021.4 |
| 20260502163234 | 12 | 297 | 6.4 | 9.7 | 0.00 | 0.00 | 0.00 | 34 | 1021.3 |
| 20260502162731 | 13 | 289 | 8.0 | 11.3 | 0.00 | 0.00 | 0.00 | 33 | 1021.3 |
| 20260502162228 | 12 | 271 | 1.6 | 6.4 | 0.00 | 0.00 | 0.00 | 35 | 1021.5 |
| 20260502161725 | 12 | 216 | 9.7 | 12.9 | 0.00 | 0.00 | 0.00 | 34 | 1021.5 |
| 20260502161222 | 12 | 271 | 6.4 | 9.7 | 0.00 | 0.00 | 0.00 | 36 | 1021.6 |
| 20260502160720 | 11 | 281 | 6.4 | 9.7 | 0.00 | 0.00 | 0.00 | 36 | 1021.5 |
| 20260502160219 | 12 | 287 | 11.3 | 16.1 | 0.00 | 0.00 | 0.00 | 35 | 1021.7 |
| 20260502152143 | 11 | 275 | 14.5 | 16.1 | 0.00 | 0.00 | 0.00 | 39 | 1022.0 |
| 20260502151640 | 11 | 276 | 11.3 | 12.9 | 0.00 | 0.00 | 0.00 | 41 | 1021.8 |
| 20260502151137 | 10 | 276 | 8.0 | 12.9 | 0.00 | 0.00 | 0.00 | 43 | 1021.9 |
| 20260502150635 | 11 | 321 | 8.0 | 11.3 | 0.00 | 0.00 | 0.00 | 42 | 1021.9 |
| 20260502150131 | 10 | 283 | 11.3 | 14.5 | 0.00 | 0.00 | 0.00 | 45 | 1021.9 |
| 20260502130520 | 5 | 9 | 1.6 | 1.6 | 0.00 | 0.00 | 0.00 | 75 | 1022.0 |
| 20260502123503 | 3 | 61 | 0.0 | 0.0 | 0.00 | 0.00 | 0.00 | 79 | 1022.0 |
| 20260502122959 | 3 | 45 | 0.0 | 0.0 | 0.00 | 0.00 | 0.00 | 78 | 1022.0 |
| 20260502122455 | 3 | 56 | 0.0 | 0.0 | 0.00 | 0.00 | 0.00 | 79 | 1021.9 |
| 20260502121953 | 2 | 54 | 0.0 | 0.0 | 0.00 | 0.00 | 0.00 | 79 | 1021.7 |
| 20260502121450 | 2 | 52 | 0.0 | 0.0 | 0.00 | 0.00 | 0.00 | 78 | 1021.7 |
| 20260502120948 | 2 | 53 | 0.0 | 0.0 | 0.00 | 0.00 | 0.00 | 78 | 1021.8 |
| 20260502120444 | 2 | 56 | 0.0 | 0.0 | 0.00 | 0.00 | 0.00 | 81 | 1021.7 |
| 20260502115438 | 1 | 54 | 0.0 | 0.0 | 0.00 | 0.00 | 0.00 | 86 | 1021.8 |
| 20260502114934 | 1 | 54 | 0.0 | 0.0 | 0.00 | 0.00 | 0.00 | 87 | 1021.7 |
| 20260502114431 | 0 | 54 | 0.0 | 0.0 | 0.00 | 0.00 | 0.00 | 88 | 1021.7 |
| 20260502113928 | 0 | 53 | 0.0 | 0.0 | 0.00 | 0.00 | 0.00 | 89 | 1021.7 |
| 20260502113426 | 0 | 53 | 0.0 | 0.0 | 0.00 | 0.00 | 0.00 | 89 | 1021.6 |
| 20260502112925 | 0 | 54 | 0.0 | 0.0 | 0.00 | 0.00 | 0.00 | 89 | 1021.6 |
| 20260502112422 | 0 | 54 | 0.0 | 0.0 | 0.00 | 0.00 | 0.00 | 89 | 1021.5 |
| 20260502111919 | 0 | 54 | 0.0 | 0.0 | 0.00 | 0.00 | 0.00 | 89 | 1021.4 |
| 20260502111416 | 0 | 53 | 0.0 | 0.0 | 0.00 | 0.00 | 0.00 | 89 | 1021.4 |
| 20260502110914 | 0 | 54 | 0.0 | 0.0 | 0.00 | 0.00 | 0.00 | 89 | 1021.4 |
| 20260502110411 | -1 | 54 | 0.0 | 0.0 | 0.00 | 0.00 | 0.00 | 89 | 1021.3 |
| 20260502105908 | 0 | 54 | 0.0 | 0.0 | 0.00 | 0.00 | 0.00 | 89 | 1021.4 |
| 20260502105405 | -1 | 54 | 0.0 | 0.0 | 0.00 | 0.00 | 0.00 | 89 | 1021.4 |
| 20260502104903 | -1 | 54 | 0.0 | 0.0 | 0.00 | 0.00 | 0.00 | 89 | 1021.2 |
| 20260502104400 | 0 | 54 | 0.0 | 0.0 | 0.00 | 0.00 | 0.00 | 89 | 1021.1 |
| 20260502103857 | -1 | 54 | 0.0 | 0.0 | 0.00 | 0.00 | 0.00 | 89 | 1021.2 |
| 20260502103355 | -1 | 54 | 0.0 | 0.0 | 0.00 | 0.00 | 0.00 | 89 | 1021.2 |
| 20260502102852 | -1 | 54 | 0.0 | 0.0 | 0.00 | 0.00 | 0.00 | 89 | 1021.3 |
| 20260502102348 | 0 | 54 | 0.0 | 0.0 | 0.00 | 0.00 | 0.00 | 89 | 1021.2 |
| 20260502101846 | 0 | 54 | 0.0 | 0.0 | 0.00 | 0.00 | 0.00 | 88 | 1021.2 |
| 20260502101344 | 0 | 54 | 0.0 | 0.0 | 0.00 | 0.00 | 0.00 | 88 | 1021.1 |
| 20260502100842 | 0 | 54 | 0.0 | 0.0 | 0.00 | 0.00 | 0.00 | 88 | 1021.3 |
| 20260502100341 | 0 | 54 | 0.0 | 0.0 | 0.00 | 0.00 | 0.00 | 88 | 1021.2 |
| 20260502091315 | 0 | 72 | 0.0 | 0.0 | 0.00 | 0.00 | 0.00 | 89 | 1021.0 |
| 20260502090813 | 0 | 72 | 0.0 | 0.0 | 0.00 | 0.00 | 0.00 | 90 | 1021.1 |
| 20260502090309 | 0 | 51 | 0.0 | 0.0 | 0.00 | 0.00 | 0.00 | 90 | 1021.1 |
| 20260502071204 | 1 | 51 | 0.0 | 0.0 | 0.00 | 0.00 | 0.00 | 83 | 1021.2 |
| 20260502070703 | 1 | 52 | 0.0 | 0.0 | 0.00 | 0.00 | 0.00 | 81 | 1021.3 |
| 20260502070200 | 1 | 52 | 0.0 | 0.0 | 0.00 | 0.00 | 0.00 | 79 | 1021.3 |
| 20260502065658 | 1 | 52 | 0.0 | 0.0 | 0.00 | 0.00 | 0.00 | 78 | 1021.3 |
| 20260502065155 | 2 | 52 | 0.0 | 0.0 | 0.00 | 0.00 | 0.00 | 77 | 1021.2 |
| 20260502064654 | 2 | 52 | 0.0 | 0.0 | 0.00 | 0.00 | 0.00 | 76 | 1021.3 |
| 20260502064151 | 2 | 52 | 0.0 | 0.0 | 0.00 | 0.00 | 0.00 | 76 | 1021.3 |
| 20260502063649 | 2 | 51 | 0.0 | 0.0 | 0.00 | 0.00 | 0.00 | 74 | 1021.3 |
| 20260502063146 | 2 | 52 | 0.0 | 0.0 | 0.00 | 0.00 | 0.00 | 74 | 1021.3 |
| 20260502062643 | 2 | 52 | 0.0 | 0.0 | 0.00 | 0.00 | 0.00 | 73 | 1021.5 |
| 20260502062141 | 2 | 51 | 0.0 | 0.0 | 0.00 | 0.00 | 0.00 | 74 | 1021.4 |
| 20260502061639 | 2 | 47 | 0.0 | 0.0 | 0.00 | 0.00 | 0.00 | 74 | 1021.5 |
| 20260502061136 | 2 | 48 | 0.0 | 0.0 | 0.00 | 0.00 | 0.00 | 74 | 1021.4 |
| 20260502060636 | 2 | 50 | 0.0 | 0.0 | 0.00 | 0.00 | 0.00 | 73 | 1021.4 |
| 20260502060133 | 2 | 52 | 0.0 | 0.0 | 0.00 | 0.00 | 0.00 | 72 | 1021.3 |
| 20260502055631 | 2 | 69 | 0.0 | 0.0 | 0.00 | 0.00 | 0.00 | 72 | 1021.4 |
| 20260502055129 | 2 | 70 | 0.0 | 0.0 | 0.00 | 0.00 | 0.00 | 72 | 1021.3 |
| 20260502054628 | 3 | 70 | 0.0 | 0.0 | 0.00 | 0.00 | 0.00 | 71 | 1021.3 |
| 20260502054125 | 3 | 81 | 1.6 | 1.6 | 0.00 | 0.00 | 0.00 | 71 | 1021.3 |
| 20260502053622 | 2 | 64 | 0.0 | 0.0 | 0.00 | 0.00 | 0.00 | 73 | 1021.3 |
| 20260502053119 | 2 | 75 | 0.0 | 0.0 | 0.00 | 0.00 | 0.00 | 73 | 1021.2 |
| 20260502052617 | 2 | 57 | 0.0 | 0.0 | 0.00 | 0.00 | 0.00 | 74 | 1021.3 |
| 20260502052115 | 2 | 64 | 0.0 | 0.0 | 0.00 | 0.00 | 0.00 | 76 | 1021.2 |
| 20260502051613 | 2 | 63 | 0.0 | 0.0 | 0.00 | 0.00 | 0.00 | 76 | 1021.1 |
| 20260502051111 | 3 | 57 | 0.0 | 0.0 | 0.00 | 0.00 | 0.00 | 76 | 1021.3 |
| 20260502050607 | 3 | 58 | 0.0 | 0.0 | 0.00 | 0.00 | 0.00 | 76 | 1021.1 |
| 20260502050104 | 3 | 42 | 0.0 | 0.0 | 0.00 | 0.00 | 0.00 | 75 | 1021.1 |
| 20260502045600 | 3 | 43 | 0.0 | 0.0 | 0.00 | 0.00 | 0.00 | 73 | 1020.9 |
| 20260502045057 | 3 | 45 | 0.0 | 0.0 | 0.00 | 0.00 | 0.00 | 72 | 1020.9 |
| 20260502044553 | 3 | 56 | 0.0 | 0.0 | 0.00 | 0.00 | 0.00 | 70 | 1021.0 |
| 20260502044050 | 3 | 57 | 0.0 | 0.0 | 0.00 | 0.00 | 0.00 | 69 | 1020.8 |
| 20260502043548 | 3 | 65 | 0.0 | 0.0 | 0.00 | 0.00 | 0.00 | 67 | 1020.8 |
| 20260502043044 | 4 | 70 | 0.0 | 0.0 | 0.00 | 0.00 | 0.00 | 67 | 1020.8 |
| 20260502042539 | 4 | 79 | 0.0 | 0.0 | 0.00 | 0.00 | 0.00 | 67 | 1020.7 |
| 20260502042037 | 4 | 79 | 0.0 | 0.0 | 0.00 | 0.00 | 0.00 | 66 | 1020.6 |
| 20260502041534 | 4 | 80 | 0.0 | 1.6 | 0.00 | 0.00 | 0.00 | 66 | 1020.8 |
| 20260502041031 | 3 | 52 | 0.0 | 0.0 | 0.00 | 0.00 | 0.00 | 65 | 1020.6 |
| 20260502040528 | 4 | 51 | 0.0 | 0.0 | 0.00 | 0.00 | 0.00 | 64 | 1020.7 |
| 20260502040025 | 4 | 49 | 0.0 | 0.0 | 0.00 | 0.00 | 0.00 | 63 | 1020.7 |
| 20260502035521 | 5 | 41 | 0.0 | 1.6 | 0.00 | 0.00 | 0.00 | 62 | 1020.6 |
| 20260502035018 | 4 | 38 | 0.0 | 0.0 | 0.00 | 0.00 | 0.00 | 64 | 1020.6 |
| 20260502034516 | 4 | 53 | 0.0 | 0.0 | 0.00 | 0.00 | 0.00 | 63 | 1020.6 |
| 20260502034015 | 5 | 53 | 0.0 | 0.0 | 0.00 | 0.00 | 0.00 | 63 | 1020.5 |
| 20260502033512 | 4 | 53 | 0.0 | 0.0 | 0.00 | 0.00 | 0.00 | 63 | 1020.4 |
| 20260502033009 | 4 | 54 | 0.0 | 0.0 | 0.00 | 0.00 | 0.00 | 63 | 1020.4 |
| 20260502032505 | 5 | 54 | 0.0 | 0.0 | 0.00 | 0.00 | 0.00 | 63 | 1020.3 |
| 20260502032002 | 5 | 54 | 0.0 | 0.0 | 0.00 | 0.00 | 0.00 | 61 | 1020.3 |
| 20260502031500 | 5 | 54 | 0.0 | 0.0 | 0.00 | 0.00 | 0.00 | 60 | 1020.3 |
| 20260502030958 | 5 | 54 | 0.0 | 0.0 | 0.00 | 0.00 | 0.00 | 59 | 1020.3 |
| 20260502030456 | 6 | 57 | 0.0 | 0.0 | 0.00 | 0.00 | 0.00 | 57 | 1020.2 |
| 20260502025954 | 6 | 58 | 0.0 | 0.0 | 0.00 | 0.00 | 0.00 | 57 | 1020.1 |
| 20260502025450 | 6 | 58 | 0.0 | 0.0 | 0.00 | 0.00 | 0.00 | 55 | 1020.0 |
| 20260502024948 | 6 | 53 | 0.0 | 0.0 | 0.00 | 0.00 | 0.00 | 55 | 1020.1 |
| 20260502024446 | 6 | 44 | 0.0 | 0.0 | 0.00 | 0.00 | 0.00 | 55 | 1020.1 |
| 20260502023944 | 6 | 52 | 0.0 | 0.0 | 0.00 | 0.00 | 0.00 | 54 | 1019.7 |
| 20260502023441 | 6 | 37 | 0.0 | 0.0 | 0.00 | 0.00 | 0.00 | 54 | 1019.9 |
| 20260502022939 | 6 | 43 | 0.0 | 0.0 | 0.00 | 0.00 | 0.00 | 54 | 1019.6 |
| 20260502022435 | 6 | 9 | 1.6 | 1.6 | 0.00 | 0.00 | 0.00 | 54 | 1019.7 |
| 20260502021932 | 7 | 37 | 0.0 | 1.6 | 0.00 | 0.00 | 0.00 | 53 | 1019.6 |
| 20260502021430 | 7 | 55 | 0.0 | 1.6 | 0.00 | 0.00 | 0.00 | 51 | 1019.7 |
| 20260502020927 | 7 | 67 | 0.0 | 0.0 | 0.00 | 0.00 | 0.00 | 50 | 1019.6 |
| 20260502020425 | 7 | 63 | 0.0 | 0.0 | 0.00 | 0.00 | 0.00 | 48 | 1019.6 |
| 20260502015921 | 8 | 55 | 0.0 | 0.0 | 0.00 | 0.00 | 0.00 | 47 | 1019.5 |
| 20260502015419 | 8 | 55 | 0.0 | 0.0 | 0.00 | 0.00 | 0.00 | 46 | 1019.3 |
| 20260502014915 | 8 | 56 | 0.0 | 1.6 | 0.00 | 0.00 | 0.00 | 45 | 1019.3 |
| 20260502014412 | 8 | 4 | 1.6 | 1.6 | 0.00 | 0.00 | 0.00 | 45 | 1019.3 |
| 20260502013908 | 8 | 2 | 3.2 | 3.2 | 0.00 | 0.00 | 0.00 | 45 | 1019.0 |
| 20260502013404 | 8 | 45 | 1.6 | 1.6 | 0.00 | 0.00 | 0.00 | 44 | 1019.0 |
| 20260502012901 | 9 | 40 | 1.6 | 3.2 | 0.00 | 0.00 | 0.00 | 43 | 1019.0 |
| 20260502012359 | 9 | 3 | 4.8 | 4.8 | 0.00 | 0.00 | 0.00 | 42 | 1018.8 |
| 20260502011856 | 9 | 50 | 1.6 | 1.6 | 0.00 | 0.00 | 0.00 | 42 | 1018.9 |
| 20260502011352 | 10 | 70 | 0.0 | 1.6 | 0.00 | 0.00 | 0.00 | 41 | 1018.8 |
| 20260502010849 | 10 | 32 | 1.6 | 1.6 | 0.00 | 0.00 | 0.00 | 41 | 1018.8 |
| 20260502010346 | 10 | 347 | 4.8 | 6.4 | 0.00 | 0.00 | 0.00 | 41 | 1018.8 |